Weather History for KSNL - April, 2013

Change the Weather History Date:

Saturday, April 27, 2013

  Actual Average (KTIK) Record (KTIK)
Temperature  
Mean Temperature 58 °F -  
Max Temperature 62 °F 70 °F 89 °F (2012)
Min Temperature 53 °F 50 °F 42 °F (2006)
Degree Days  
Heating Degree Days 8    
Growing Degree Days 8 (Base 50)    
Moisture  
Dew Point 56 °F    
Average Humidity 93    
Maximum Humidity 100    
Minimum Humidity 77    
Precipitation  
Precipitation 0.01 in - - ()
Sea Level Pressure  
Sea Level Pressure 30.08 in    
Wind  
Wind Speed 8 mph (North)    
Max Wind Speed 17 mph    
Max Gust Speed 20 mph    
Visibility 9 miles    
Events Fog , Rain    
Averages and records for this station are not official NWS values.
T = Trace of Precipitation, MM = Missing Value Source: NWS Daily Summary

Daily Weather History Graph

Daily Weather History Graph

Search for Another Location

Airport or City:

Trip Planner

Search our weather history database for the weather conditions in past years. The results will help you decide how hot, cold, wet, or windy it might be!

Date:

Astronomy

Apr. 27, 2013 Rise Set
Actual Time 6:40 AM CDT 8:10 PM CDT
Civil Twilight 6:13 AM CDT 8:37 PM CDT
Nautical Twilight 5:41 AM CDT 9:10 PM CDT
Astronomical Twilight 5:07 AM CDT 9:44 PM CDT
Moon 10:37 PM CDT (4/27) 8:03 AM CDT (4/27)
Length of Visible Light 14h 24m
Length of Day
13h 30m
Waning Gibbous, 95% of the Moon is Illuminated
Apr 27
Waning Gibbous
May 2
Last Quarter
May 9
New
May 17
First Quarter
May 24
Full

Hourly Weather History & Observations

Time (CDT) Temp. Dew Point Humidity Pressure Visibility Wind Dir Wind Speed Gust Speed Precip Events Conditions
12:15 AM 57.2 °F 57.2 °F 100% 30.05 in 10.0 mi East 9.2 mph - N/A   Overcast
12:35 AM 57.2 °F 57.2 °F 100% 30.03 in 10.0 mi ESE 9.2 mph - N/A   Overcast
12:55 AM 57.2 °F 57.2 °F 100% 30.04 in 10.0 mi Calm Calm - N/A   Overcast
1:15 AM 57.2 °F 57.2 °F 100% 30.04 in 10.0 mi South 3.5 mph - N/A   Overcast
1:35 AM 57.2 °F 57.2 °F 100% 30.03 in 10.0 mi Calm Calm - N/A Rain Light Rain
1:55 AM 57.2 °F 57.2 °F 100% 30.04 in 7.0 mi NNW 4.6 mph - N/A Rain Rain
2:15 AM 57.2 °F 57.2 °F 100% 30.05 in 10.0 mi North 12.7 mph - N/A   Mostly Cloudy
2:35 AM 57.2 °F 57.2 °F 100% 30.05 in 7.0 mi North 9.2 mph - N/A   Overcast
2:55 AM 55.4 °F 55.4 °F 100% 30.04 in 7.0 mi North 9.2 mph - N/A   Overcast
3:15 AM 57.2 °F 57.2 °F 100% 30.04 in 5.0 mi North 8.1 mph - N/A Rain Light Rain
3:35 AM 57.2 °F 57.2 °F 100% 30.04 in 1.2 mi North 12.7 mph - N/A   Overcast
3:55 AM 57.2 °F 57.2 °F 100% 30.04 in 0.5 mi NNW 12.7 mph - N/A Fog Fog
4:15 AM 55.4 °F 55.4 °F 100% 30.06 in 1.0 mi North 10.4 mph - N/A Rain Light Rain
4:35 AM 55.4 °F 55.4 °F 100% 30.06 in 1.2 mi North 13.8 mph - N/A   Overcast
4:55 AM 55.4 °F 55.4 °F 100% 30.06 in 2.0 mi North 9.2 mph - N/A   Overcast
5:15 AM 55.4 °F 55.4 °F 100% 30.06 in 2.5 mi North 11.5 mph - N/A   Overcast
6:35 AM 53.6 °F 53.6 °F 100% 30.08 in 4.0 mi North 12.7 mph - N/A   Overcast
6:55 AM 53.6 °F 53.6 °F 100% 30.09 in 10.0 mi North 8.1 mph - N/A   Overcast
7:15 AM 53.6 °F 53.6 °F 100% 30.09 in 10.0 mi North 12.7 mph - N/A   Overcast
7:35 AM 53.6 °F 53.6 °F 100% 30.10 in 7.0 mi NNW 10.4 mph - N/A   Overcast
8:15 AM 53.6 °F 53.6 °F 100% 30.11 in 5.0 mi NNW 11.5 mph 16.1 mph N/A   Overcast
8:35 AM 53.6 °F 53.6 °F 100% 30.12 in 7.0 mi NNW 12.7 mph - N/A   Overcast
8:55 AM 53.6 °F 53.6 °F 100% 30.12 in 10.0 mi NNW 12.7 mph - N/A   Overcast
9:15 AM 55.4 °F 55.4 °F 100% 30.12 in 10.0 mi NNW 10.4 mph - N/A   Overcast
9:35 AM 55.4 °F 55.4 °F 100% 30.12 in 10.0 mi NNW 12.7 mph - N/A   Overcast
9:55 AM 55.4 °F 55.4 °F 100% 30.13 in 10.0 mi NNW 15.0 mph - N/A   Overcast
10:15 AM 55.4 °F 55.4 °F 100% 30.12 in 10.0 mi NNW 16.1 mph - N/A   Overcast
10:35 AM 55.4 °F 55.4 °F 100% 30.12 in 10.0 mi NNW 12.7 mph - 0.01 in   Overcast
10:55 AM 55.4 °F 55.4 °F 100% 30.12 in 10.0 mi NNW 17.3 mph - 0.01 in   Overcast
11:15 AM 57.2 °F 55.4 °F 94% 30.13 in 10.0 mi NNW 13.8 mph - N/A   Overcast
11:35 AM 59.0 °F 55.4 °F 88% 30.14 in 10.0 mi NW 11.5 mph - N/A   Overcast
11:55 AM 59.0 °F 55.4 °F 88% 30.15 in 10.0 mi NW 12.7 mph - N/A   Overcast
12:15 PM 59.0 °F 55.4 °F 88% 30.14 in 10.0 mi NNW 13.8 mph - N/A   Overcast
12:35 PM 59.0 °F 55.4 °F 88% 30.14 in 10.0 mi NNW 16.1 mph 19.6 mph N/A   Overcast
12:55 PM 59.0 °F 55.4 °F 88% 30.14 in 10.0 mi NNW 12.7 mph - N/A   Overcast
1:15 PM 59.0 °F 55.4 °F 88% 30.14 in 10.0 mi NW 12.7 mph 18.4 mph N/A   Overcast
1:35 PM 60.8 °F 57.2 °F 88% 30.12 in 10.0 mi NNW 16.1 mph - N/A   Overcast
1:55 PM 60.8 °F 57.2 °F 88% 30.12 in 10.0 mi NNW 11.5 mph - N/A   Overcast
2:15 PM 60.8 °F 57.2 °F 88% 30.12 in 10.0 mi NW 11.5 mph - N/A   Overcast
2:35 PM 60.8 °F 55.4 °F 82% 30.12 in 10.0 mi NNW 12.7 mph - N/A   Overcast
2:55 PM 60.8 °F 55.4 °F 82% 30.12 in 10.0 mi NNW 11.5 mph 19.6 mph N/A   Overcast
3:15 PM 60.8 °F 57.2 °F 88% 30.12 in 10.0 mi North 9.2 mph - N/A   Overcast
3:35 PM 60.8 °F 55.4 °F 82% 30.11 in 10.0 mi North 9.2 mph - N/A   Overcast
3:55 PM 60.8 °F 55.4 °F 82% 30.10 in 10.0 mi North 10.4 mph - N/A   Overcast
4:15 PM 60.8 °F 55.4 °F 82% 30.10 in 10.0 mi North 9.2 mph - N/A   Overcast
4:35 PM 62.6 °F 55.4 °F 77% 30.09 in 10.0 mi North 8.1 mph - N/A   Overcast
5:15 PM 62.6 °F 55.4 °F 77% 30.08 in 10.0 mi NNW 6.9 mph - N/A   Overcast
5:35 PM 62.6 °F 55.4 °F 77% 30.08 in 10.0 mi NNE 8.1 mph - N/A   Overcast
5:55 PM 62.6 °F 55.4 °F 77% 30.08 in 10.0 mi North 5.8 mph - N/A   Overcast
6:15 PM 62.6 °F 55.4 °F 77% 30.08 in 10.0 mi North 6.9 mph - N/A   Overcast
6:35 PM 60.8 °F 55.4 °F 82% 30.08 in 10.0 mi North 4.6 mph - N/A   Overcast
6:55 PM 62.6 °F 55.4 °F 77% 30.07 in 10.0 mi NNE 5.8 mph - N/A   Overcast
7:15 PM 62.6 °F 55.4 °F 77% 30.07 in 10.0 mi NE 3.5 mph - N/A   Overcast
7:35 PM 60.8 °F 55.4 °F 82% 30.06 in 10.0 mi NE 4.6 mph - N/A   Mostly Cloudy
7:55 PM 60.8 °F 55.4 °F 82% 30.06 in 10.0 mi Calm Calm - N/A   Scattered Clouds
8:15 PM 59.0 °F 55.4 °F 88% 30.06 in 10.0 mi Calm Calm - N/A   Clear
8:35 PM 59.0 °F 55.4 °F 88% 30.06 in 10.0 mi Calm Calm - N/A   Clear
8:55 PM 59.0 °F 55.4 °F 88% 30.06 in 10.0 mi Calm Calm - N/A   Clear
9:15 PM 57.2 °F 55.4 °F 94% 30.07 in 10.0 mi Calm Calm - N/A   Clear
9:35 PM 55.4 °F 55.4 °F 100% 30.07 in 10.0 mi Calm Calm - N/A   Clear
9:55 PM 55.4 °F 55.4 °F 100% 30.07 in 10.0 mi Calm Calm - N/A   Clear
10:15 PM 55.4 °F 55.4 °F 100% 30.07 in 10.0 mi Calm Calm - N/A   Clear
10:35 PM 55.4 °F 55.4 °F 100% 30.06 in 10.0 mi Calm Calm - N/A   Clear
10:55 PM 55.4 °F 55.4 °F 100% 30.06 in 10.0 mi Calm Calm - N/A   Clear
11:15 PM 53.6 °F 53.6 °F 100% 30.06 in 10.0 mi East 4.6 mph - N/A   Clear
11:35 PM 53.6 °F 53.6 °F 100% 30.05 in 10.0 mi Calm Calm - N/A   Clear
11:55 PM 53.6 °F 53.6 °F 100% 30.05 in 10.0 mi Calm Calm - N/A   Clear